| time (UTC) | temp F | wind direction | speed knots | gust knots | rain 1hr in | rain 24hr in | rain mn in | humidity % | barometer mb |
| 20260507093515 | 55 | 242 | 4.3 | 9.6 | 0.00 | 0.26 | 0.00 | 74 | 1013.5 |
| 20260507092536 | 55 | 231 | 4.3 | 7.8 | 0.00 | 0.26 | 0.00 | 74 | 1013.4 |
| 20260507091537 | 55 | 238 | 3.5 | 9.6 | 0.00 | 0.26 | 0.00 | 73 | 1013.4 |
| 20260507090515 | 56 | 238 | 4.3 | 9.6 | 0.00 | 0.26 | 0.00 | 72 | 1013.3 |
| 20260507085517 | 57 | 222 | 7.8 | 13.9 | 0.00 | 0.26 | 0.00 | 72 | 1013.2 |
| 20260507084515 | 56 | 238 | 6.1 | 10.4 | 0.00 | 0.26 | 0.00 | 73 | 1013.0 |
| 20260507083515 | 56 | 238 | 6.1 | 13.9 | 0.00 | 0.26 | 0.00 | 74 | 1013.1 |
| 20260507082515 | 56 | 227 | 5.2 | 10.4 | 0.00 | 0.26 | 0.00 | 72 | 1012.9 |
| 20260507081516 | 56 | 224 | 7.0 | 13.9 | 0.00 | 0.26 | 0.00 | 74 | 1012.8 |
| 20260507080517 | 55 | 242 | 6.1 | 13.0 | 0.00 | 0.26 | 0.00 | 75 | 1012.9 |
| 20260507075516 | 55 | 252 | 4.3 | 8.7 | 0.00 | 0.26 | 0.00 | 76 | 1012.9 |
| 20260507074516 | 54 | 237 | 4.3 | 8.7 | 0.00 | 0.26 | 0.00 | 78 | 1012.8 |
| 20260507073556 | 53 | 226 | 5.2 | 10.4 | 0.00 | 0.26 | 0.00 | 78 | 1012.8 |
| 20260507072516 | 53 | 228 | 5.2 | 13.0 | 0.00 | 0.26 | 0.00 | 80 | 1012.7 |
| 20260507071516 | 51 | 209 | 4.3 | 9.6 | 0.00 | 0.26 | 0.00 | 83 | 1012.6 |
| 20260507070536 | 51 | 185 | 2.6 | 6.1 | 0.00 | 0.26 | 0.00 | 84 | 1012.6 |
| 20260507065516 | 50 | 196 | 2.6 | 5.2 | 0.00 | 0.26 | 0.00 | 83 | 1012.6 |
| 20260507064517 | 50 | 213 | 3.5 | 7.8 | 0.00 | 0.26 | 0.00 | 83 | 1012.5 |
| 20260507063516 | 51 | 206 | 4.3 | 7.0 | 0.00 | 0.26 | 0.00 | 84 | 1012.5 |
| 20260507062517 | 50 | 211 | 3.5 | 7.0 | 0.00 | 0.26 | 0.00 | 84 | 1012.5 |
| 20260507061517 | 50 | 221 | 4.3 | 9.6 | 0.00 | 0.26 | 0.00 | 84 | 1012.4 |
| 20260507060515 | 50 | 225 | 4.3 | 8.7 | 0.00 | 0.26 | 0.00 | 85 | 1012.3 |
| 20260507055517 | 49 | 222 | 4.3 | 8.7 | 0.00 | 0.26 | 0.00 | 86 | 1012.2 |
| 20260507054516 | 49 | 208 | 3.5 | 10.4 | 0.00 | 0.26 | 0.00 | 87 | 1012.0 |
| 20260507053518 | 48 | 213 | 3.5 | 7.0 | 0.00 | 0.26 | 0.00 | 88 | 1011.9 |
| 20260507052516 | 48 | 204 | 3.5 | 7.8 | 0.00 | 0.26 | 0.00 | 88 | 1011.9 |
| 20260507051515 | 48 | 187 | 3.5 | 7.8 | 0.00 | 0.26 | 0.00 | 88 | 1011.8 |
| 20260507050517 | 48 | 183 | 2.6 | 5.2 | 0.00 | 0.26 | 0.00 | 88 | 1011.6 |
| 20260507045535 | 48 | 173 | 1.7 | 3.5 | 0.00 | 0.26 | 0.00 | 89 | 1011.6 |
| 20260507044516 | 47 | 164 | 1.7 | 3.5 | 0.00 | 0.26 | 0.00 | 89 | 1011.4 |
| 20260507043516 | 47 | 166 | 1.7 | 4.3 | 0.00 | 0.26 | 0.00 | 89 | 1011.2 |
| 20260507042517 | 47 | 181 | 0.9 | 2.6 | 0.00 | 0.26 | 0.00 | 89 | 1011.2 |
| 20260507041537 | 47 | 0.0 | 0.0 | 0.00 | 0.26 | 0.00 | 89 | 1011.0 | |
| 20260507040516 | 46 | 191 | 0.0 | 0.9 | 0.00 | 0.26 | 0.00 | 89 | 1011.1 |
| 20260507035515 | 46 | 191 | 0.9 | 3.5 | 0.00 | 0.26 | 0.00 | 89 | 1011.1 |
| 20260507034535 | 46 | 192 | 1.7 | 3.5 | 0.00 | 0.26 | 0.00 | 88 | 1011.0 |
| 20260507033517 | 47 | 200 | 0.9 | 3.5 | 0.00 | 0.26 | 0.00 | 88 | 1011.1 |
| 20260507032516 | 47 | 199 | 2.6 | 4.3 | 0.00 | 0.26 | 0.00 | 87 | 1011.2 |
| 20260507031537 | 47 | 191 | 1.7 | 4.3 | 0.00 | 0.26 | 0.00 | 87 | 1011.2 |
| 20260507030518 | 47 | 205 | 2.6 | 5.2 | 0.00 | 0.26 | 0.00 | 87 | 1011.2 |
| 20260507025515 | 47 | 206 | 2.6 | 4.3 | 0.00 | 0.26 | 0.00 | 87 | 1011.0 |
| 20260507024515 | 47 | 216 | 1.7 | 3.5 | 0.00 | 0.26 | 0.00 | 87 | 1010.9 |
| 20260507023535 | 48 | 215 | 1.7 | 4.3 | 0.00 | 0.26 | 0.00 | 87 | 1010.8 |
| 20260507022516 | 48 | 225 | 1.7 | 3.5 | 0.00 | 0.26 | 0.00 | 87 | 1010.8 |
| 20260507021536 | 47 | 221 | 1.7 | 3.5 | 0.00 | 0.26 | 0.00 | 87 | 1010.8 |
| 20260507020517 | 47 | 234 | 2.6 | 4.3 | 0.00 | 0.26 | 0.00 | 87 | 1010.6 |
| 20260507015516 | 47 | 238 | 2.6 | 6.1 | 0.00 | 0.26 | 0.00 | 87 | 1010.5 |
| 20260507014516 | 48 | 233 | 2.6 | 6.1 | 0.00 | 0.26 | 0.00 | 87 | 1010.4 |
| 20260507013516 | 48 | 231 | 2.6 | 6.1 | 0.00 | 0.26 | 0.00 | 87 | 1010.4 |
| 20260507012517 | 48 | 223 | 2.6 | 6.1 | 0.00 | 0.26 | 0.00 | 87 | 1010.4 |
| 20260507011517 | 48 | 227 | 2.6 | 4.3 | 0.00 | 0.26 | 0.00 | 87 | 1010.4 |
| 20260507010516 | 48 | 208 | 2.6 | 6.1 | 0.00 | 0.26 | 0.00 | 87 | 1010.5 |
| 20260507005517 | 48 | 220 | 3.5 | 5.2 | 0.00 | 0.26 | 0.00 | 86 | 1010.4 |
| 20260507004516 | 48 | 229 | 2.6 | 6.1 | 0.00 | 0.26 | 0.00 | 86 | 1010.4 |
| 20260507003515 | 48 | 225 | 2.6 | 7.8 | 0.00 | 0.26 | 0.00 | 86 | 1010.4 |
| 20260507002517 | 49 | 220 | 4.3 | 10.4 | 0.00 | 0.26 | 0.00 | 86 | 1010.4 |
| 20260507001516 | 49 | 215 | 3.5 | 7.8 | 0.00 | 0.27 | 0.00 | 86 | 1010.5 |
| 20260507000517 | 49 | 220 | 4.3 | 7.8 | 0.00 | 0.27 | 0.00 | 87 | 1010.5 |
| 20260506235516 | 49 | 224 | 4.3 | 7.8 | 0.00 | 0.27 | 0.00 | 87 | 1010.6 |
| 20260506234517 | 49 | 222 | 4.3 | 7.8 | 0.00 | 0.27 | 0.00 | 87 | 1010.5 |
| 20260506233518 | 49 | 225 | 3.5 | 8.7 | 0.00 | 0.27 | 0.00 | 87 | 1010.4 |
| 20260506232520 | 49 | 224 | 3.5 | 7.0 | 0.00 | 0.27 | 0.00 | 86 | 1010.3 |
| 20260506231536 | 49 | 216 | 4.3 | 7.8 | 0.00 | 0.27 | 0.00 | 87 | 1010.4 |
| 20260506230515 | 49 | 210 | 4.3 | 7.8 | 0.00 | 0.27 | 0.00 | 87 | 1010.3 |
| 20260506225516 | 49 | 219 | 5.2 | 9.6 | 0.00 | 0.27 | 0.00 | 87 | 1010.4 |
| 20260506224516 | 49 | 214 | 5.2 | 9.6 | 0.00 | 0.27 | 0.00 | 88 | 1010.5 |
| 20260506223537 | 49 | 217 | 5.2 | 10.4 | 0.00 | 0.27 | 0.00 | 88 | 1010.3 |
| 20260506222516 | 49 | 209 | 3.5 | 7.8 | 0.00 | 0.27 | 0.00 | 88 | 1010.3 |
| 20260506221518 | 49 | 221 | 3.5 | 9.6 | 0.00 | 0.27 | 0.00 | 89 | 1010.3 |
| 20260506220516 | 49 | 219 | 4.3 | 7.0 | 0.00 | 0.27 | 0.00 | 89 | 1010.2 |
| 20260506215515 | 49 | 219 | 2.6 | 6.1 | 0.00 | 0.27 | 0.27 | 89 | 1010.1 |
| 20260506214536 | 49 | 203 | 2.6 | 6.1 | 0.00 | 0.27 | 0.27 | 89 | 1010.0 |
| 20260506213516 | 49 | 190 | 2.6 | 5.2 | 0.01 | 0.29 | 0.27 | 89 | 1010.0 |
| 20260506212517 | 49 | 191 | 3.5 | 6.1 | 0.02 | 0.31 | 0.27 | 89 | 1010.1 |
| 20260506211516 | 49 | 187 | 4.3 | 9.6 | 0.02 | 0.32 | 0.27 | 88 | 1010.1 |
| 20260506210555 | 49 | 207 | 3.5 | 7.8 | 0.02 | 0.34 | 0.27 | 88 | 1009.9 |
| 20260506205516 | 49 | 214 | 3.5 | 7.8 | 0.02 | 0.39 | 0.27 | 88 | 1009.7 |
| 20260506204535 | 50 | 221 | 3.5 | 7.8 | 0.02 | 0.42 | 0.27 | 87 | 1009.6 |
| 20260506203517 | 50 | 228 | 4.3 | 8.7 | 0.02 | 0.41 | 0.26 | 87 | 1009.4 |
| 20260506202515 | 50 | 232 | 2.6 | 7.0 | 0.01 | 0.40 | 0.25 | 87 | 1009.4 |
| 20260506201517 | 50 | 234 | 3.5 | 8.7 | 0.02 | 0.40 | 0.25 | 87 | 1009.2 |
| 20260506200516 | 50 | 232 | 4.3 | 7.8 | 0.02 | 0.40 | 0.25 | 87 | 1009.2 |
| 20260506195515 | 50 | 233 | 4.3 | 8.7 | 0.02 | 0.40 | 0.25 | 87 | 1009.1 |
| 20260506194518 | 50 | 237 | 5.2 | 8.7 | 0.02 | 0.40 | 0.25 | 87 | 1009.0 |
| 20260506193515 | 50 | 234 | 6.1 | 10.4 | 0.01 | 0.39 | 0.24 | 86 | 1009.0 |
| 20260506192538 | 50 | 231 | 5.2 | 13.9 | 0.01 | 0.39 | 0.24 | 86 | 1009.0 |
| 20260506191516 | 50 | 237 | 4.3 | 9.6 | 0.00 | 0.39 | 0.24 | 86 | 1008.9 |
| 20260506190558 | 50 | 228 | 7.0 | 11.3 | 0.00 | 0.39 | 0.24 | 85 | 1008.9 |
| 20260506185516 | 51 | 221 | 6.1 | 9.6 | 0.00 | 0.39 | 0.24 | 85 | 1008.7 |
| 20260506184517 | 51 | 228 | 5.2 | 10.4 | 0.00 | 0.39 | 0.24 | 85 | 1008.4 |
| 20260506183516 | 51 | 226 | 5.2 | 11.3 | 0.01 | 0.39 | 0.24 | 85 | 1008.2 |
| 20260506182515 | 51 | 225 | 5.2 | 13.0 | 0.01 | 0.39 | 0.24 | 86 | 1007.9 |
| 20260506181516 | 51 | 227 | 7.0 | 14.8 | 0.02 | 0.39 | 0.24 | 87 | 1007.7 |
| 20260506180515 | 51 | 227 | 6.1 | 10.4 | 0.02 | 0.39 | 0.24 | 87 | 1007.7 |
| 20260506175519 | 52 | 235 | 6.1 | 12.2 | 0.02 | 0.39 | 0.24 | 87 | 1007.5 |
| 20260506174516 | 52 | 228 | 7.0 | 12.2 | 0.02 | 0.39 | 0.24 | 88 | 1007.4 |
| 20260506173517 | 53 | 222 | 8.7 | 20.0 | 0.02 | 0.38 | 0.23 | 89 | 1007.2 |
| 20260506172515 | 54 | 217 | 7.8 | 13.9 | 0.02 | 0.38 | 0.23 | 90 | 1006.9 |
| 20260506171515 | 54 | 213 | 6.1 | 9.6 | 0.01 | 0.37 | 0.22 | 89 | 1006.3 |
| 20260506170516 | 54 | 208 | 4.3 | 7.8 | 0.01 | 0.37 | 0.22 | 89 | 1006.0 |
| 20260506165515 | 54 | 209 | 4.3 | 7.8 | 0.01 | 0.37 | 0.22 | 89 | 1005.8 |
| 20260506164517 | 54 | 206 | 1.7 | 5.2 | 0.00 | 0.36 | 0.21 | 89 | 1005.5 |
| 20260506163517 | 54 | 218 | 2.6 | 6.1 | 0.00 | 0.36 | 0.21 | 88 | 1005.4 |
| 20260506162515 | 54 | 199 | 1.7 | 4.3 | 0.01 | 0.36 | 0.21 | 87 | 1005.4 |
| 20260506161536 | 54 | 228 | 1.7 | 6.1 | 0.09 | 0.36 | 0.21 | 87 | 1005.4 |
| 20260506160517 | 54 | 8 | 3.5 | 7.0 | 0.17 | 0.36 | 0.21 | 86 | 1005.1 |
| 20260506155516 | 54 | 347 | 5.2 | 9.6 | 0.20 | 0.36 | 0.21 | 86 | 1005.2 |
| 20260506154515 | 54 | 346 | 4.3 | 10.4 | 0.20 | 0.36 | 0.21 | 87 | 1005.2 |
| 20260506153517 | 54 | 304 | 5.2 | 10.4 | 0.20 | 0.36 | 0.21 | 86 | 1005.5 |
| 20260506152537 | 54 | 285 | 7.8 | 13.9 | 0.20 | 0.35 | 0.20 | 85 | 1006.0 |
| 20260506151515 | 56 | 245 | 7.8 | 15.6 | 0.12 | 0.28 | 0.13 | 83 | 1006.3 |
| 20260506150516 | 59 | 234 | 9.6 | 18.2 | 0.04 | 0.21 | 0.05 | 77 | 1006.0 |
| 20260506145537 | 62 | 261 | 6.1 | 13.9 | 0.01 | 0.20 | 0.02 | 73 | 1004.3 |
| 20260506144517 | 63 | 299 | 7.8 | 13.0 | 0.00 | 0.23 | 0.01 | 65 | 1003.5 |
| 20260506143516 | 64 | 316 | 5.2 | 11.3 | 0.00 | 0.24 | 0.01 | 64 | 1003.4 |
| 20260506142517 | 65 | 354 | 7.0 | 13.0 | 0.00 | 0.27 | 0.01 | 63 | 1003.1 |
| 20260506141536 | 66 | 342 | 7.0 | 10.4 | 0.00 | 0.31 | 0.01 | 61 | 1003.5 |
| 20260506140517 | 66 | 1 | 6.1 | 11.3 | 0.00 | 0.31 | 0.01 | 61 | 1003.6 |
| 20260506135515 | 67 | 352 | 5.2 | 9.6 | 0.00 | 0.31 | 0.01 | 60 | 1003.7 |
| 20260506134518 | 67 | 359 | 6.1 | 11.3 | 0.00 | 0.31 | 0.01 | 60 | 1003.6 |
| 20260506133516 | 66 | 355 | 6.1 | 9.6 | 0.00 | 0.31 | 0.01 | 62 | 1003.7 |
| 20260506132515 | 65 | 354 | 5.2 | 8.7 | 0.00 | 0.31 | 0.01 | 62 | 1003.9 |
| 20260506131516 | 65 | 352 | 3.5 | 7.8 | 0.00 | 0.31 | 0.01 | 63 | 1004.1 |
| 20260506130515 | 66 | 341 | 5.2 | 9.6 | 0.00 | 0.31 | 0.01 | 62 | 1004.1 |
| 20260506125535 | 67 | 350 | 3.5 | 7.0 | 0.00 | 0.31 | 0.01 | 59 | 1004.2 |
| 20260506124516 | 67 | 69 | 2.6 | 6.1 | 0.00 | 0.31 | 0.01 | 58 | 1004.4 |
| 20260506123517 | 66 | 41 | 3.5 | 7.0 | 0.00 | 0.31 | 0.01 | 57 | 1004.5 |
| 20260506122537 | 66 | 66 | 2.6 | 7.8 | 0.00 | 0.31 | 0.01 | 59 | 1004.5 |
| 20260506121556 | 67 | 64 | 3.5 | 8.7 | 0.00 | 0.31 | 0.01 | 60 | 1004.5 |
| 20260506120537 | 64 | 33 | 5.2 | 8.7 | 0.00 | 0.31 | 0.01 | 61 | 1004.8 |
| 20260506115515 | 64 | 58 | 3.5 | 8.7 | 0.00 | 0.31 | 0.01 | 61 | 1004.9 |
| 20260506114516 | 64 | 53 | 3.5 | 7.0 | 0.00 | 0.31 | 0.01 | 62 | 1005.0 |
| 20260506113517 | 64 | 90 | 2.6 | 7.0 | 0.00 | 0.31 | 0.01 | 62 | 1005.2 |
| 20260506112536 | 64 | 72 | 3.5 | 7.8 | 0.00 | 0.31 | 0.01 | 62 | 1005.2 |
| 20260506111516 | 64 | 20 | 3.5 | 8.7 | 0.00 | 0.31 | 0.01 | 62 | 1005.3 |
| 20260506110517 | 63 | 32 | 2.6 | 7.0 | 0.00 | 0.31 | 0.01 | 62 | 1005.4 |
| 20260506105516 | 64 | 52 | 4.3 | 10.4 | 0.00 | 0.31 | 0.01 | 62 | 1005.6 |
| 20260506104516 | 63 | 63 | 4.3 | 8.7 | 0.00 | 0.31 | 0.01 | 62 | 1005.8 |
| 20260506103517 | 63 | 29 | 3.5 | 8.7 | 0.00 | 0.31 | 0.01 | 66 | 1006.0 |
| 20260506102516 | 63 | 37 | 2.6 | 6.1 | 0.00 | 0.31 | 0.01 | 66 | 1006.0 |
| 20260506101517 | 63 | 23 | 2.6 | 7.0 | 0.00 | 0.31 | 0.01 | 65 | 1006.2 |
| 20260506100537 | 63 | 30 | 1.7 | 4.3 | 0.00 | 0.31 | 0.01 | 67 | 1006.2 |
| 20260506095515 | 62 | 7 | 1.7 | 5.2 | 0.00 | 0.31 | 0.01 | 67 | 1006.2 |
| 20260506094516 | 62 | 350 | 3.5 | 7.0 | 0.00 | 0.31 | 0.01 | 68 | 1006.2 |